Weather History for Burns, OR

Change the Weather History Date:

Tuesday, April 30, 2013

  Actual Average Record
Temperature  
Mean Temperature 35 °F 47 °F  
Max Temperature 51 °F 61 °F 81 °F (1981)
Min Temperature 18 °F 32 °F 18 °F (2013)
Degree Days  
Heating Degree Days 30 18  
Month to date heating degree days 652 654  
Since 1 July heating degree days 6841 7040  
Cooling Degree Days 0 0  
Month to date cooling degree days 0 0  
Year to date cooling degree days 0 0  
Moisture  
Dew Point 14 °F    
Average Humidity 51    
Maximum Humidity 81    
Minimum Humidity 21    
Precipitation  
Precipitation 0.00 in 0.03 in 0.44 in (1987)
Month to date precipitation 0.39 0.93  
Year to date precipitation 1.31 4.23  
Sea Level Pressure  
Sea Level Pressure 30.15 in    
Wind  
Wind Speed 11 mph (WNW)    
Max Wind Speed 25 mph    
Max Gust Speed 32 mph    
Visibility 10 miles    
Events      
T = Trace of Precipitation, MM = Missing Value Source: NWS Daily Summary

Daily Weather History Graph

Daily Weather History Graph

Search for Another Location

Airport:

Trip Planner

Search our weather history database for the weather conditions in past years. The results will help you decide how hot, cold, wet, or windy it might be!

Date:

Astronomy

Apr. 30, 2013 Rise Set
Actual Time 5:49 AM PDT 7:57 PM PDT
Civil Twilight 5:17 AM PDT 8:28 PM PDT
Nautical Twilight 4:39 AM PDT 9:07 PM PDT
Astronomical Twilight 3:56 AM PDT 9:50 PM PDT
Moon 12:26 AM PDT (4/30) 10:22 AM PDT (4/30)
Length of Visible Light 15h 10m
Length of Day
14h 08m
Waning Gibbous, 69% of the Moon is Illuminated
Apr 30
Waning Gibbous
May 2
Last Quarter
May 9
New
May 17
First Quarter
May 24
Full

Hourly Weather History & Observations

Time (PDT) Temp. Windchill Dew Point Humidity Pressure Visibility Wind Dir Wind Speed Gust Speed Precip Events Conditions
12:53 AM 27.0 °F - 19.0 °F 72% 29.99 in 10.0 mi Calm Calm - N/A   Clear
1:53 AM 25.0 °F 17.1 °F 19.0 °F 78% 29.99 in 10.0 mi Variable 6.9 mph - N/A   Clear
2:53 AM 26.1 °F 18.4 °F 21.0 °F 81% 30.01 in 10.0 mi SW 6.9 mph - N/A   Clear
3:53 AM 26.1 °F 16.8 °F 19.9 °F 78% 30.02 in 10.0 mi SW 9.2 mph - N/A   Clear
4:53 AM 25.0 °F 17.1 °F 19.9 °F 81% 30.03 in 10.0 mi WSW 6.9 mph - N/A   Clear
5:53 AM 26.1 °F 16.8 °F 19.0 °F 75% 30.06 in 10.0 mi WSW 9.2 mph - N/A   Clear
6:53 AM 28.0 °F - 21.0 °F 75% 30.09 in 10.0 mi Calm Calm - N/A   Clear
7:53 AM 34.0 °F 24.6 °F 19.0 °F 54% 30.11 in 10.0 mi WNW 13.8 mph - N/A   Clear
8:53 AM 36.0 °F 26.7 °F 15.1 °F 43% 30.12 in 10.0 mi WNW 15.0 mph 23.0 mph N/A   Clear
9:53 AM 39.0 °F 30.6 °F 12.0 °F 33% 30.12 in 10.0 mi West 15.0 mph 23.0 mph N/A   Clear
10:53 AM 42.1 °F 34.9 °F 10.9 °F 28% 30.12 in 10.0 mi West 13.8 mph 20.7 mph N/A   Clear
11:53 AM 46.9 °F - 12.0 °F 24% 30.11 in 10.0 mi NW 13.8 mph 20.7 mph N/A   Clear
12:53 PM 48.0 °F - 10.9 °F 22% 30.11 in 10.0 mi Variable 5.8 mph 17.3 mph N/A   Clear
1:53 PM 51.1 °F - 12.0 °F 21% 30.12 in 10.0 mi WNW 17.3 mph 24.2 mph N/A   Clear
2:53 PM 50.0 °F - 12.0 °F 22% 30.14 in 10.0 mi WNW 18.4 mph 21.9 mph N/A   Clear
3:53 PM 51.1 °F - 14.0 °F 23% 30.14 in 10.0 mi NW 19.6 mph 28.8 mph N/A   Clear
4:53 PM 48.9 °F - 10.9 °F 22% 30.17 in 10.0 mi WNW 21.9 mph 29.9 mph N/A   Clear
5:53 PM 48.0 °F - 10.0 °F 22% 30.19 in 10.0 mi WNW 20.7 mph 27.6 mph N/A   Clear
6:53 PM 45.0 °F 38.2 °F 10.0 °F 24% 30.22 in 10.0 mi WNW 15.0 mph - N/A   Clear
7:53 PM 39.9 °F 32.9 °F 10.9 °F 31% 30.25 in 10.0 mi NW 11.5 mph - N/A   Clear
8:53 PM 33.1 °F 26.9 °F 12.0 °F 42% 30.30 in 10.0 mi NNW 6.9 mph - N/A   Clear
9:53 PM 27.0 °F 18.7 °F 10.9 °F 51% 30.34 in 10.0 mi NNW 8.1 mph - N/A   Clear
10:53 PM 24.1 °F 17.0 °F 12.0 °F 60% 30.37 in 10.0 mi NW 5.8 mph - N/A   Clear
11:53 PM 21.9 °F 12.5 °F 9.0 °F 58% 30.39 in 10.0 mi NW 8.1 mph - N/A   Clear